• In Russia
  • List of Countries
  • For 7 days
  • Water Temperature
  • Satellite Maps
  • Weather Map
  • Weather Widgets
  • user-avatar
    Login

    Hourly Weather Brisbane

    Today, 4 December, Sunday

    Time Temperature Precipitation Wind Pressure Humidity
    00:00 +22°C° 0.2 mm 3 mps 760 mmHg 96%
    01:00 +22°C° 0.2 mm 3 mps 760 mmHg 97%
    02:00 +22°C° 0 mm 3 mps 760 mmHg 96%
    03:00 +21°C° 0 mm 2 mps 760 mmHg 96%
    04:00 +22°C° 0 mm 1 mps 760 mmHg 96%
    05:00 +23°C° 0 mm 2 mps 760 mmHg 89%
    06:00 +25°C° 0 mm 2 mps 760 mmHg 82%
    07:00 +26°C° 0 mm 2 mps 760 mmHg 76%
    08:00 +29°C° 0 mm 3 mps 760 mmHg 64%
    09:00 +31°C° 0 mm 3 mps 760 mmHg 53%
    10:00 +35°C° 0 mm 4 mps 760 mmHg 41%
    11:00 +36°C° 0 mm 5 mps 759 mmHg 40%
    12:00 +37°C° 0 mm 5 mps 758 mmHg 39%
    13:00 +39°C° 0 mm 6 mps 758 mmHg 39%
    14:00 +36°C° 0 mm 7 mps 757 mmHg 44%
    15:00 +35°C° 0 mm 7 mps 757 mmHg 50%
    16:00 +34°C° 0 mm 8 mps 757 mmHg 56%
    17:00 +32°C° 0.1 mm 8 mps 757 mmHg 63%
    18:00 +29°C° 0.1 mm 7 mps 757 mmHg 70%
    19:00 +27°C° 0.1 mm 7 mps 758 mmHg 77%
    20:00 +26°C° 0.1 mm 6 mps 758 mmHg 80%
    21:00 +26°C° 0.1 mm 6 mps 759 mmHg 83%
    22:00 +25°C° 0.1 mm 5 mps 759 mmHg 86%
    23:00 +23°C° 0.2 mm 5 mps 759 mmHg 88%

    Tomorrow, 5 December, Monday

    Time Temperature Precipitation Wind Pressure Humidity
    00:00 +23°C° 0.2 mm 4 mps 759 mmHg 90%
    01:00 +22°C° 0.2 mm 4 mps 759 mmHg 92%
    02:00 +22°C° 0.2 mm 4 mps 759 mmHg 93%
    03:00 +22°C° 0.2 mm 4 mps 759 mmHg 93%
    04:00 +21°C° 0.2 mm 4 mps 759 mmHg 93%
    05:00 +23°C° 0 mm 4 mps 759 mmHg 87%
    06:00 +25°C° 0 mm 4 mps 759 mmHg 81%
    07:00 +27°C° 0 mm 4 mps 760 mmHg 74%
    08:00 +29°C° 0 mm 5 mps 760 mmHg 62%
    09:00 +33°C° 0 mm 5 mps 759 mmHg 51%
    10:00 +36°C° 0 mm 5 mps 759 mmHg 39%
    11:00 +38°C° 0 mm 6 mps 759 mmHg 37%
    12:00 +39°C° 0 mm 6 mps 758 mmHg 35%
    13:00 +40°C° 0 mm 7 mps 757 mmHg 33%
    14:00 +39°C° 0 mm 8 mps 757 mmHg 37%
    15:00 +38°C° 0 mm 8 mps 756 mmHg 41%
    16:00 +37°C° 0 mm 8 mps 756 mmHg 45%
    17:00 +34°C° 0.1 mm 8 mps 756 mmHg 52%
    18:00 +32°C° 0.1 mm 8 mps 756 mmHg 58%
    19:00 +29°C° 0.1 mm 8 mps 757 mmHg 65%
    20:00 +28°C° 0.3 mm 8 mps 757 mmHg 67%
    21:00 +28°C° 0.3 mm 7 mps 758 mmHg 69%
    22:00 +27°C° 0.3 mm 7 mps 759 mmHg 71%
    23:00 +26°C° 1.1 mm 6 mps 759 mmHg 77%

    Day after tomorrow, 6 December, Tuesday

    Time Temperature Precipitation Wind Pressure Humidity
    00:00 +25°C° 1.1 mm 5 mps 759 mmHg 82%
    01:00 +23°C° 1.1 mm 5 mps 759 mmHg 88%
    02:00 +23°C° 0 mm 4 mps 758 mmHg 89%
    03:00 +22°C° 0 mm 4 mps 758 mmHg 90%
    04:00 +22°C° 0 mm 4 mps 758 mmHg 90%
    05:00 +23°C° 0 mm 4 mps 759 mmHg 85%
    06:00 +26°C° 0 mm 4 mps 759 mmHg 79%
    07:00 +27°C° 0 mm 5 mps 760 mmHg 74%
    08:00 +30°C° 0 mm 5 mps 759 mmHg 63%
    09:00 +34°C° 0 mm 5 mps 759 mmHg 51%
    10:00 +37°C° 0 mm 5 mps 759 mmHg 40%
    11:00 +38°C° 0 mm 6 mps 758 mmHg 39%
    12:00 +39°C° 0 mm 7 mps 758 mmHg 37%
    13:00 +40°C° 0 mm 7 mps 757 mmHg 36%
    14:00 +39°C° 0 mm 8 mps 757 mmHg 40%
    15:00 +38°C° 0 mm 8 mps 756 mmHg 44%
    16:00 +37°C° 0 mm 9 mps 756 mmHg 47%
    17:00 +34°C° 0.1 mm 9 mps 756 mmHg 53%
    18:00 +32°C° 0.1 mm 9 mps 756 mmHg 58%
    19:00 +29°C° 0.1 mm 9 mps 757 mmHg 64%
    20:00 +29°C° 0.1 mm 8 mps 757 mmHg 65%
    21:00 +28°C° 0.1 mm 8 mps 757 mmHg 67%
    22:00 +27°C° 0.1 mm 7 mps 758 mmHg 69%
    23:00 +26°C° 0.4 mm 6 mps 757 mmHg 74%

    7 December, Wednesday

    Time Temperature Precipitation Wind Pressure Humidity
    00:00 +25°C° 0.4 mm 5 mps 757 mmHg 78%
    01:00 +23°C° 0.4 mm 4 mps 757 mmHg 83%
    02:00 +23°C° 0.8 mm 4 mps 757 mmHg 84%
    03:00 +22°C° 0.8 mm 4 mps 757 mmHg 85%
    04:00 +22°C° 0.8 mm 4 mps 758 mmHg 86%
    05:00 +23°C° 0.3 mm 4 mps 758 mmHg 81%
    06:00 +26°C° 0.3 mm 4 mps 759 mmHg 77%
    07:00 +27°C° 0.3 mm 4 mps 759 mmHg 72%
    08:00 +30°C° 0 mm 4 mps 759 mmHg 61%
    09:00 +34°C° 0 mm 4 mps 759 mmHg 50%
    10:00 +37°C° 0 mm 4 mps 759 mmHg 39%
    11:00 +39°C° 0 mm 5 mps 758 mmHg 36%
    12:00 +40°C° 0 mm 5 mps 757 mmHg 34%
    13:00 +41°C° 0 mm 6 mps 756 mmHg 31%
    14:00 +40°C° 0 mm 6 mps 756 mmHg 36%
    15:00 +39°C° 0 mm 7 mps 755 mmHg 41%
    16:00 +38°C° 0 mm 7 mps 755 mmHg 46%
    17:00 +35°C° 0.2 mm 7 mps 756 mmHg 52%
    18:00 +33°C° 0.2 mm 6 mps 756 mmHg 59%
    19:00 +30°C° 0.2 mm 6 mps 757 mmHg 66%
    20:00 +28°C° 0.8 mm 5 mps 757 mmHg 74%
    21:00 +27°C° 0.8 mm 4 mps 758 mmHg 81%
    22:00 +26°C° 0.8 mm 4 mps 759 mmHg 89%
    23:00 +25°C° 0.1 mm 4 mps 759 mmHg 90%

    8 December, Thursday

    Time Temperature Precipitation Wind Pressure Humidity
    00:00 +25°C° 0.1 mm 3 mps 758 mmHg 91%
    01:00 +25°C° 0.1 mm 3 mps 758 mmHg 92%
    02:00 +25°C° 0.3 mm 3 mps 758 mmHg 92%
    03:00 +25°C° 0.3 mm 2 mps 758 mmHg 93%
    04:00 +24°C° 0.3 mm 2 mps 758 mmHg 94%
    05:00 +25°C° 0.1 mm 2 mps 758 mmHg 90%
    06:00 +26°C° 0.1 mm 2 mps 759 mmHg 86%
    07:00 +27°C° 0.1 mm 2 mps 759 mmHg 81%
    08:00 +29°C° 0.3 mm 2 mps 759 mmHg 74%
    09:00 +30°C° 0.3 mm 2 mps 758 mmHg 66%
    10:00 +32°C° 0.3 mm 2 mps 758 mmHg 58%
    11:00 +35°C° 0.2 mm 3 mps 757 mmHg 53%
    12:00 +36°C° 0.2 mm 4 mps 756 mmHg 48%
    13:00 +39°C° 0.2 mm 5 mps 756 mmHg 43%
    14:00 +36°C° 1.6 mm 5 mps 756 mmHg 53%
    15:00 +34°C° 1.6 mm 5 mps 755 mmHg 63%
    16:00 +30°C° 1.6 mm 5 mps 755 mmHg 73%
    17:00 +29°C° 4.8 mm 5 mps 756 mmHg 80%
    18:00 +27°C° 4.8 mm 4 mps 756 mmHg 87%
    19:00 +26°C° 4.8 mm 4 mps 757 mmHg 94%
    20:00 +26°C° 2.5 mm 5 mps 757 mmHg 93%
    21:00 +26°C° 2.5 mm 6 mps 757 mmHg 93%
    22:00 +26°C° 2.5 mm 7 mps 758 mmHg 92%
    23:00 +26°C° 0.2 mm 7 mps 757 mmHg 92%

    9 December, Friday

    Time Temperature Precipitation Wind Pressure Humidity
    00:00 +26°C° 0.2 mm 6 mps 757 mmHg 91%
    01:00 +24°C° 0.2 mm 6 mps 756 mmHg 91%
    02:00 +24°C° 0.2 mm 6 mps 756 mmHg 89%
    03:00 +25°C° 0.2 mm 5 mps 756 mmHg 88%
    04:00 +25°C° 0.2 mm 5 mps 756 mmHg 86%
    05:00 +26°C° 0 mm 5 mps 756 mmHg 83%
    06:00 +27°C° 0 mm 4 mps 757 mmHg 80%
    07:00 +27°C° 0 mm 3 mps 757 mmHg 77%
    08:00 +30°C° 0 mm 3 mps 757 mmHg 68%
    09:00 +33°C° 0 mm 3 mps 757 mmHg 58%
    10:00 +36°C° 0 mm 4 mps 757 mmHg 49%
    11:00 +37°C° 0 mm 4 mps 756 mmHg 46%
    12:00 +38°C° 0 mm 4 mps 756 mmHg 42%
    13:00 +40°C° 0 mm 4 mps 755 mmHg 38%
    14:00 +36°C° 1.1 mm 5 mps 756 mmHg 50%
    15:00 +33°C° 1.1 mm 5 mps 756 mmHg 62%
    16:00 +29°C° 1.1 mm 6 mps 756 mmHg 74%
    17:00 +28°C° 3.4 mm 7 mps 756 mmHg 81%
    18:00 +26°C° 3.4 mm 7 mps 757 mmHg 87%
    19:00 +24°C° 3.4 mm 8 mps 758 mmHg 94%
    20:00 +23°C° 4.3 mm 7 mps 759 mmHg 93%
    21:00 +23°C° 4.3 mm 7 mps 759 mmHg 93%
    22:00 +23°C° 4.3 mm 7 mps 760 mmHg 93%
    23:00 +23°C° 0.4 mm 7 mps 760 mmHg 92%
    Show more